EHI
0 0 0 0 0 0 0 0 0 0 0 0 0 0 0 0 0 0 0 0 0 0 0 0 0 0 0 0 0 0 0 0 0 0 0 0 0 0 0 0 0 0 0
0 0 0 0 0 1 1 0 0 0 0 0 0 0 0 0 0 0 0 0 0 0 0 0 0 0 0 0 0 0 0 0 0 0 0 0 0 0 0 0 0 0 0
0 0 0 0 0 1 2 1 0 0 0 0 0 0 0 0 0 0 0 0 0 0 0 0 0 0 0 0 0 0 0 0 0 0 0 0 0 0 0 0 0 0 0
0 0 0 0 0 1 2 2 1 0 0 0 0 0 0 0 0 0 0 0 0 0 0 0 0 0 0 0 0 0 0 0 0 0 0 0 0 0 0 0 0 0 0
0 0 0 0 0 1 2 2 1 0 0 0 0 0 0 0 0 0 0 0 0 0 0 0 0 0 0 0 0 0 0 0 0 0 0 0 0 0 0 0 0 0 0
0 0 0 0 0 0 1 2 1 0 0 0 0 0 0 0 0 0 0 0 0 0 0 0 0 0 0 0 0 0 0 0 0 0 0 0 0 0 0 0 0 0 0
0 0 0 0 0 0 1 1 1 0 0 0 0 0 0 0 0 0 0 0 0 0 0 0 0 0 0 0 0 0 0 0 0 0 0 0 0 0 0 0 0 0 0
0 0 0 0 0 0 0 1 0 0 0 0 0 0 0 0 0 0 0 0 0 0 0 0 0 0 0 0 0 0 0 0 0 0 0 0 0 0 0 0 0 0 0
0 0 0 0 0 0 0 1 0 0 0 0 0 0 0 0 0 0 0 0 0 0 0 0 0 0 0 0 0 0 0 0 0 0 0 0 0 0 0 0 0 0 0
0 0 0 0 0 0 0 0 0 0 0 0 0 0 0 0 0 0 0 0 0 0 0 0 0 0 0 0 0 0 0 0 0 0 0 0 0 0 0 0 0 0 0
0 0 0 0 0 0 0 0 0 0 0 0 0 0 0 0 0 0 0 0 0 0 0 0 0 0 0 0 0 0 0 0 0 0 0 0 0 0 0 0 0 0 0
0 0 0 0 0 0 0 0 0 0 0 0 0 0 0 0 0 0 0 0 0 0 0 0 0 0 0 0 0 0 0 0 0 0 0 0 0 0 0 0 0 0 0
0 0 0 0 0 0 0 0 0 0 0 0 0 0 0 0 0 0 0 0 0 0 0 0 0 0 0 0 0 0 0 0 0 0 0 0 0 0 0 0 0 0 0
0 0 0 0 0 0 0 0 0 0 0 0 0 0 0 0 0 0 0 0 0 0 0 0 0 0 0 0 0 0 0 0 0 0 0 0 0 0 0 0 0 0 0
0 0 0 0 0 0 0 0 0 0 0 0 0 0 0 0 0 0 0 0 0 0 0 0 0 0 0 0 0 0 0 0 0 0 0 0 0 0 0 0 0 0 0
0 0 0 0 0 0 0 0 0 0 0 0 0 0 0 0 0 0 0 0 0 0 0 0 0 0 0 0 0 0 0 0 0 0 0 0 0 0 0 0 0 0 0
0 0 0 0 0 0 0 0 0 0 0 0 0 0 0 0 0 0 0 0 0 0 0 0 0 0 0 0 0 0 0 0 0 0 0 0 0 0 0 0 0 0 0
0 0 0 0 0 0 0 0 0 0 0 0 0 0 0 0 0 0 0 0 0 0 0 0 0 0 0 0 0 0 0 0 0 0 0 0 0 0 0 0 0 0 0
0 0 0 0 0 0 0 0 0 0 0 0 0 0 0 0 0 0 0 0 0 0 0 0 0 0 0 0 0 0 0 0 0 0 0 0 0 0 0 0 0 0 0
0 0 0 0 0 0 0 0 0 0 0 0 0 0 0 0 0 0 0 0 0 0 0 0 0 0 0 0 0 0 0 0 0 0 0 0 0 0 0 0 0 0 0
0 0 0 0 0 0 0 0 0 0 0 0 0 0 0 0 0 0 0 0 0 0 0 0 0 0 0 0 0 0 0 0 0 0 0 0 0 0 0 0 0 0 0
0 0 0 0 0 0 0 0 0 0 0 0 0 0 0 0 0 0 0 0 0 0 0 0 0 0 0 0 0 0 0 0 0 0 0 0 0 0 0 0 0 0 0
0 0 0 0 0 0 0 0 0 0 0 0 0 0 0 0 0 0 0 0 0 0 0 0 0 0 0 0 0 0 0 0 0 0 0 0 0 0 0 0 0 0 0
0 0 0 0 0 0 0 0 0 0 0 0 0 0 0 0 0 0 0 0 0 0 0 0 0 0 0 0 0 0 0 0 0 0 0 0 0 0 0 0 0 0 0
0 0 0 0 0 0 0 0 0 0 0 0 0 0 0 0 0 0 0 0 0 0 0 0 0 0 0 0 0 0 0 0 0 0 0 0 0 0 0 0 0 0 0
0 0 0 0 0 0 0 0 0 0 0 0 0 0 0 0 0 0 0 0 0 0 0 0 0 0 0 0 0 0 0 0 0 0 0 0 0 0 0 0 0 0 0
Wind_Speed
4 3 3 3 3 3 3 3 3 3 2 2 2 2 2 2 2 2 2 2 2 3 3 3 3 3 2 2 3 2 2 2 2 2 2 3 3 4 3 3 3 3 3
3 2 3 3 3 3 3 3 3 3 3 2 2 2 2 2 2 2 2 3 3 3 3 3 3 3 3 3 3 3 3 2 2 2 2 2 3 3 3 3 3 4 3
5 4 3 3 3 3 3 3 4 3 3 3 2 1 1 1 2 2 2 3 4 4 4 4 4 4 4 4 4 4 4 3 3 3 3 2 2 1 3 3 3 3 3
4 3 3 3 4 3 3 3 3 3 3 3 3 3 3 3 3 3 2 3 3 4 4 4 4 4 4 4 5 5 4 5 4 3 4 4 2 3 2 3 4 4 4
3 3 3 3 3 3 2 2 2 2 3 3 4 4 3 3 2 3 3 3 3 4 4 4 4 5 4 5 5 5 5 5 5 5 4 4 4 5 4 4 4 4 4
2 2 2 2 2 2 2 2 2 2 2 3 3 4 4 4 4 4 3 3 3 3 4 5 5 5 5 5 5 5 6 6 7 6 6 5 5 5 5 5 5 5 4
1 1 1 1 2 2 2 2 2 3 3 3 4 4 5 5 5 5 4 4 3 4 4 5 5 5 6 6 6 6 7 7 8 7 6 6 6 5 5 6 6 6 5
1 1 2 2 2 2 2 3 3 3 3 3 4 4 5 4 4 5 4 4 4 4 5 5 6 7 6 6 6 6 7 7 7 8 8 7 6 6 6 6 5 6 6
2 2 2 2 2 2 3 3 3 3 3 3 4 4 5 5 5 5 5 4 4 4 5 6 7 7 7 7 7 6 7 7 7 7 8 7 6 6 6 6 6 7 7
2 2 2 2 2 2 3 3 4 4 4 4 4 3 5 5 5 5 6 5 5 5 5 6 6 7 6 7 7 7 7 7 7 6 7 7 6 6 6 6 7 8 8
3 3 3 3 2 2 2 2 3 3 3 3 3 4 4 4 5 5 5 5 5 5 6 6 6 6 7 6 7 7 7 8 8 7 8 8 7 7 6 7 7 8 8
3 3 3 3 2 2 2 2 3 3 3 3 3 3 3 3 4 4 4 4 5 5 5 5 6 6 6 6 7 7 7 8 8 8 8 8 7 8 7 7 8 8 8
3 3 2 2 2 2 2 2 3 3 3 3 3 3 3 3 4 4 4 4 4 4 4 4 5 5 6 6 6 7 7 8 7 7 8 8 8 8 7 8 8 7 7
4 3 3 3 3 3 3 3 3 3 2 2 3 3 3 4 4 4 4 4 4 4 4 4 5 5 5 6 5 6 7 7 7 7 8 8 9 8 8 7 8 7 8
4 4 3 3 3 3 3 3 3 3 2 2 3 3 4 4 4 4 4 4 4 4 4 4 5 5 5 5 5 6 7 7 7 7 7 7 8 9 8 7 8 8 7
5 4 4 4 3 4 4 4 3 3 3 3 3 3 4 4 4 4 4 4 4 4 4 4 5 5 4 5 6 6 6 6 6 7 7 6 7 8 10 12 12 11 9
5 5 4 4 4 4 3 4 4 3 3 3 3 3 3 4 4 4 4 4 4 4 4 4 4 5 5 6 7 7 6 6 6 6 6 6 6 8 7 9 11 11 12
5 5 4 4 4 3 3 3 3 3 3 3 3 3 3 4 4 4 4 4 4 4 4 4 5 5 5 6 6 7 6 5 6 6 7 7 7 7 8 8 8 9 10
5 4 3 3 3 3 2 2 3 3 3 3 4 4 3 4 4 4 4 4 4 4 4 5 5 5 5 6 7 7 5 5 6 6 7 7 8 8 10 9 9 10 9
4 3 3 2 2 2 2 2 3 3 4 4 4 4 4 4 4 4 4 4 4 4 4 5 5 5 5 6 7 7 4 5 5 5 6 8 8 9 10 9 9 10 9
4 3 2 2 2 2 2 2 3 4 4 4 4 4 4 4 4 4 4 4 4 4 4 5 5 5 5 6 7 7 5 5 5 5 5 5 8 10 11 11 9 10 9
4 3 2 2 2 2 2 3 4 4 4 4 4 4 4 4 4 4 4 4 4 4 4 5 5 4 4 5 6 7 7 7 6 6 5 6 8 10 11 9 9 11 10
3 3 2 2 3 3 3 3 4 4 4 4 4 4 4 4 4 4 4 4 3 3 4 4 4 4 4 4 7 8 8 8 6 5 8 9 10 10 8 8 10 9 6
3 2 2 2 3 3 3 4 4 4 3 3 4 4 4 4 4 3 3 3 3 3 4 4 5 5 5 4 4 4 5 6 6 5 7 9 9 8 8 7 6 5 5
3 2 2 3 3 3 4 4 4 3 3 3 3 3 3 4 4 4 3 4 4 5 5 5 5 5 5 6 8 6 4 4 4 5 4 4 4 4 4 4 4 4 4
3 3 3 3 3 3 4 4 4 3 3 3 3 3 3 3 3 4 4 5 6 8 9 9 8 7 8 10 10 9 8 8 7 6 4 4 4 4 4 4 4 4 5
Wind_Direction
237 223 218 218 219 215 212 215 215 208 196 201 221 230 241 241 243 249 253 250 247 250 249 243 224 223 230 241 250 258 246 258 266 252 255 246 233 235 235 237 240 233 233
230 220 216 210 212 215 212 211 215 210 205 215 228 240 243 245 243 249 251 250 250 251 252 251 239 228 232 237 237 250 249 249 250 257 252 244 219 207 225 232 240 243 236
238 227 219 222 221 220 221 216 215 212 209 211 208 205 222 237 240 246 253 255 253 246 244 243 248 239 231 233 233 234 245 240 237 246 251 248 249 264 216 228 232 237 235
243 236 228 232 232 231 227 224 216 211 206 204 211 214 223 233 248 250 247 252 249 249 242 241 245 246 237 234 235 231 242 239 237 233 244 258 276 256 250 222 228 241 246
242 236 234 236 240 237 228 221 212 212 208 207 219 227 237 247 253 254 248 255 254 251 250 248 247 247 245 240 239 237 239 236 237 236 236 242 244 243 249 257 249 244 243
257 246 244 240 242 237 223 216 205 216 215 213 224 229 239 247 251 256 258 257 258 255 250 249 248 249 249 244 241 239 240 241 237 237 236 237 236 232 237 251 260 264 261
266 254 248 244 245 237 228 223 212 219 220 221 229 237 241 245 248 254 254 257 259 260 257 252 249 250 250 249 244 242 240 241 237 234 238 239 241 248 248 251 259 266 268
289 283 267 253 244 238 239 230 225 233 234 234 240 244 246 247 251 254 258 256 259 262 263 254 250 250 251 250 245 245 241 243 240 238 237 239 239 239 241 244 252 264 262
294 296 281 266 259 249 244 240 239 244 245 245 253 252 249 251 256 259 259 259 261 265 260 254 249 249 249 249 246 244 242 245 243 242 240 238 240 240 242 239 237 248 260
315 314 301 283 274 266 261 256 251 250 250 247 248 257 260 260 262 262 262 264 266 266 265 259 253 251 249 248 244 246 243 246 245 242 242 242 242 240 240 239 241 243 252
320 316 311 303 294 282 266 264 264 263 262 259 258 263 270 272 268 265 268 271 271 270 265 261 255 250 249 248 245 244 243 246 247 243 242 244 244 242 241 243 243 241 244
313 312 310 309 301 297 290 282 277 270 271 272 268 269 275 277 279 282 283 282 280 277 271 265 258 252 250 247 248 246 245 246 245 246 246 247 245 244 246 246 246 244 243
311 313 313 305 299 297 292 287 286 282 281 277 273 274 275 277 286 293 294 290 286 284 278 267 263 258 255 252 253 250 247 247 248 248 247 248 245 247 246 247 250 252 251
304 308 307 306 308 304 298 297 297 292 286 280 275 276 284 286 289 290 291 293 293 289 281 273 269 263 258 255 256 257 251 253 254 252 251 250 247 248 248 249 250 252 255
301 297 297 303 309 310 310 310 306 301 291 279 278 285 289 292 292 292 294 298 296 290 286 281 275 271 263 254 253 258 255 255 258 258 255 254 255 258 257 254 253 250 250
291 291 295 298 299 300 303 305 305 301 289 278 281 289 294 299 298 297 300 298 293 289 288 283 278 275 271 276 270 269 262 260 260 261 262 261 258 256 257 259 262 260 256
290 287 284 285 289 291 291 293 300 299 286 283 288 292 296 299 299 298 298 296 294 293 290 286 286 278 277 280 278 275 268 263 265 265 264 262 261 261 259 262 262 262 261
295 289 285 287 290 292 292 296 298 295 290 288 290 295 296 297 299 295 295 298 297 294 291 289 285 276 278 285 287 284 272 267 266 266 265 265 265 263 264 265 263 262 260
294 286 285 285 289 288 295 301 299 299 294 292 295 296 293 293 294 292 295 300 299 297 294 290 289 283 281 285 288 284 276 270 271 270 268 267 265 269 268 265 265 265 265
309 299 301 300 291 295 300 294 295 297 296 299 299 297 293 289 288 292 296 297 294 294 297 295 294 290 283 287 288 286 274 274 276 277 273 269 269 273 273 265 264 264 267
313 308 303 301 299 300 293 287 294 296 303 302 297 295 292 290 290 295 295 295 295 297 298 297 293 291 292 283 283 287 278 275 278 277 276 275 276 274 274 272 267 267 273
315 307 305 306 309 301 286 289 295 304 306 300 296 295 295 297 297 297 299 299 299 298 300 300 301 300 299 297 287 286 285 282 277 277 278 280 284 283 280 275 273 274 275
305 303 298 303 311 306 291 286 297 306 301 297 296 299 300 298 298 294 294 295 293 292 296 298 302 304 301 297 296 291 288 286 282 280 284 288 290 289 282 279 279 276 267
302 298 289 291 301 309 306 296 299 298 291 290 295 296 296 296 295 290 286 287 287 287 290 294 295 297 297 295 295 293 291 289 287 286 285 286 284 282 282 283 276 268 265
295 284 275 279 290 301 303 305 301 293 285 287 291 293 292 293 294 292 286 283 278 281 286 287 286 289 292 299 305 302 296 296 292 293 285 283 284 282 279 280 281 276 268
282 282 283 284 288 293 296 300 296 285 279 283 287 288 290 292 291 292 294 287 283 290 287 288 290 290 294 303 304 304 302 303 300 293 285 287 286 284 284 284 284 280 274